Regional Weather Roundup
Issued by NWS Bismarck, ND

Home | Current Version | Previous Version | Text Only | Print | Product List | Glossary On
Versions: 1 2 3 4 5 6 7 8 9 10 11 12 13 14 15 16 17 18 19 20 21 22 23 24 25 26 27 28 29 30 31 32 33 34 35 36 37 38 39 40 41 42 43 44 45 46 47 48 49 50
000
ASUS43 KBIS 160810
RWRBIS

NWR BROADCAST TEXT
NATIONAL WEATHER SERVICE BISMARCK ND
200 AM CST TUE JAN 16 2018

NOTE: "FAIR" INDICATES FEW OR NO CLOUDS BELOW 12,000 FEET WITH NO
SIGNIFICANT WEATHER AND/OR OBSTRUCTIONS TO VISIBILITY.


CITY           SKY/WX    TMP DP  RH WIND       PRES   REMARKS
WILLISTON      FAIR     -16 -21  78 CALM      30.70F
MINOT          FAIR     -13 -20  71 SW9       30.73F WCI -31
MINOT AFB      CLOUDY   -18 -24  72 W8        30.72F WCI -36
BISMARCK       FAIR     -21 -26  77 CALM      30.82F
DICKINSON      FAIR     -19 -25  73 S9        30.63F WCI -39
GARRISON         N/A    -20 -26  74 S3        30.74F
HETTINGER ARPT CLEAR    -18 -23  77 CALM      30.68F
JAMESTOWN      FAIR     -14 -19  79 NW8       30.77S WCI -31
CARRINGTON     FAIR     -17 -22  76 W7        30.79F WCI -33
HAZEN            N/A    -22 -29  69 MISG      30.79F
LINTON           N/A    -18 -27  63 W5        30.81F WCI -31
MANDAN         FAIR     -18 -24  76 SW6       30.77F WCI -33
OAKES            N/A    -11 -18  70 NW15      30.79S WCI -34
RUGBY          FAIR     -20 -26  76 S5        30.76F WCI -33
STANLEY        FAIR     -17 -22  76 SW7       30.68F WCI -33
WATFORD CITY   FAIR     -20 -26  76 CALM      30.69F
$$

CITY           SKY/WX    TMP DP  RH WIND       PRES   REMARKS
GRAND FORKS    FAIR     -13 -19  75 NW7       30.83F WCI -29
GRAND FORKS AF FAIR     -14 -22  67 NW8       30.82F WCI -31
DEVILS LAKE    FAIR     -16 -22  74 SW3       30.78F
FARGO          CLOUDY   -11 -17  75 N14       30.82R WCI -33
CANDO          FAIR     -22 -27  76 SW7       30.78F WCI -39
CAVALIER         N/A    -15 -20  76 W6        30.82F WCI -29
GRAFTON        FAIR     -13 -18  77 W6        30.85F WCI -27
GWINNER          N/A     -9 -17  70 N13       30.79R WCI -30
LANGDON        FAIR     -18 -24  76 SW5       30.73F WCI -31
ROLLA          FAIR     -13 -20  70 W7        30.70F WCI -29
WALHALLA       FAIR     -13 -20  70 CALM      30.81F
$$

CITY           SKY/WX    TMP DP  RH WIND       PRES   REMARKS
ABERDEEN       CLOUDY    -9 -15  75 NW7       30.82R WCI -24
MOBRIDGE       PTCLDY   -12 -19  71 S3        30.78R
BUFFALO          N/A     -8 -16  67 CALM      30.53F
RAPID CITY     CLEAR    -10 -14  82 CALM      30.65F
GLASGOW        CLEAR    N/A N/A N/A E15       30.55F
SIDNEY         CLEAR    -19 -24  77 S6        30.70F WCI -34
WOLF POINT     CLEAR    -18 -26  67 NE3       30.66F
GLENDIVE       CLEAR    -16 -22  74 SW10      30.63F WCI -36
MILES CITY     CLEAR    -17 -20  86 S8        30.59F WCI -35
BAKER          CLEAR    -16 -20  82 SE6       30.60F WCI -31
$$

CITY           SKY/WX    TMP DP  RH WIND       PRES   REMARKS
BILLINGS       PTCLDY    -2  -5  87 CALM      30.45F
GREAT FALLS    PTCLDY    21  10  62 S8        30.24F WCI  11
REGINA         PTCLDY   -11 -17  77 SE13      30.55F WCI -32
ESTEVAN        CLEAR    -11 -18  70 SW13      30.65F WCI -32
$$




USA.gov is the U.S. government's official web portal to all federal, state and local government web resources and services.